Weather History for Easton, MD

Change the Weather History Date:

Friday, December 7, 2012

  Actual Average Record
Temperature  
Mean Temperature 40 °F -  
Max Temperature 50 °F 54 °F 72 °F (1951)
Min Temperature 31 °F 32 °F 19 °F (2007)
Degree Days  
Heating Degree Days 24    
Moisture  
Dew Point 38 °F    
Average Humidity 93    
Maximum Humidity 100    
Minimum Humidity 87    
Precipitation  
Precipitation 0.61 in - - ()
Sea Level Pressure  
Sea Level Pressure 30.18 in    
Wind  
Wind Speed 2 mph (South)    
Max Wind Speed 8 mph    
Max Gust Speed -    
Visibility 9 miles    
Events Rain    
Averages and records for this station are not official NWS values.
T = Trace of Precipitation, MM = Missing Value Source: NWS Daily Summary

Daily Weather History Graph

Daily Weather History Graph

Search for Another Location

Airport:

Trip Planner

Search our weather history database for the weather conditions in past years. The results will help you decide how hot, cold, wet, or windy it might be!

Date:

Astronomy

Dec. 07, 2012 Rise Set
Actual Time 7:09 AM EST 4:42 PM EST
Civil Twilight 6:39 AM EST 5:11 PM EST
Nautical Twilight 6:06 AM EST 5:45 PM EST
Astronomical Twilight 5:34 AM EST 6:17 PM EST
Moon 12:29 AM EST (12/7) 12:35 PM EST (12/7)
Length of Visible Light 10h 32m
Length of Day
9h 32m
Last Quarter, 39% of the Moon is Illuminated
Dec 7
Last Quarter
Dec 13
New
Dec 20
First Quarter
Dec 28
Full
Jan 4
Last Quarter

Hourly Weather History & Observations

Time (EST) Temp. Windchill Dew Point Humidity Pressure Visibility Wind Dir Wind Speed Gust Speed Precip Events Conditions
12:16 AM 32.0 °F 27.5 °F 30.0 °F 92% 30.31 in 10.0 mi SSE 4.6 mph - N/A   Clear
12:37 AM 31.6 °F - 29.1 °F 90% 30.30 in 10.0 mi Calm Calm - N/A   Clear
12:59 AM 32.7 °F 28.3 °F 30.6 °F 92% 30.29 in 10.0 mi SSE 4.6 mph - N/A   Scattered Clouds
1:20 AM 32.7 °F 28.3 °F 30.2 °F 90% 30.28 in 10.0 mi SE 4.6 mph - N/A   Scattered Clouds
1:42 AM 32.2 °F - 30.2 °F 92% 30.28 in 10.0 mi Calm Calm - N/A   Clear
2:03 AM 32.5 °F 29.3 °F 30.6 °F 92% 30.27 in 10.0 mi SSE 3.5 mph - N/A   Clear
2:24 AM 32.0 °F - 30.6 °F 94% 30.27 in 10.0 mi Calm Calm - N/A   Mostly Cloudy
2:45 AM 33.1 °F - 31.6 °F 94% 30.27 in 10.0 mi Calm Calm - N/A   Overcast
3:07 AM 33.8 °F - 31.6 °F 92% 30.26 in 10.0 mi Calm Calm - N/A   Overcast
3:28 AM 34.0 °F - 32.0 °F 92% 30.25 in 10.0 mi Calm Calm - N/A   Overcast
3:49 AM 34.3 °F - 32.0 °F 91% 30.24 in 10.0 mi Calm Calm - N/A   Overcast
4:11 AM 34.7 °F - 32.0 °F 90% 30.24 in 10.0 mi Calm Calm - N/A   Overcast
4:31 AM 35.1 °F - 32.0 °F 89% 30.24 in 10.0 mi Calm Calm - N/A   Overcast
4:53 AM 35.1 °F - 32.0 °F 89% 30.24 in 10.0 mi Calm Calm - N/A   Overcast
5:15 AM 35.4 °F - 32.0 °F 87% 30.23 in 10.0 mi Calm Calm - N/A   Overcast
5:36 AM 35.6 °F - 32.2 °F 87% 30.23 in 10.0 mi Calm Calm - N/A   Overcast
5:53 AM 35.6 °F 32.8 °F 32.0 °F 87% 30.23 in 10.0 mi SE 3.5 mph - N/A   Overcast
5:57 AM 35.8 °F 33.0 °F 32.5 °F 88% 30.23 in 10.0 mi SSE 3.5 mph - N/A   Overcast
6:18 AM 36.5 °F - 33.1 °F 87% 30.24 in 10.0 mi Calm Calm - N/A   Overcast
6:39 AM 36.7 °F - 34.0 °F 90% 30.24 in 10.0 mi Calm Calm - N/A   Overcast
6:53 AM 37.4 °F - 35.6 °F 93% 30.24 in 8.0 mi Calm Calm - N/A Rain Light Rain
7:53 AM 39.2 °F - 35.6 °F 87% 30.23 in 10.0 mi Calm Calm - N/A   Overcast
8:53 AM 41.0 °F 38.0 °F 39.2 °F 93% 30.22 in 10.0 mi South 4.6 mph - N/A   Overcast
9:53 AM 41.0 °F 38.0 °F 41.0 °F 100% 30.23 in 10.0 mi South 4.6 mph - N/A Rain Light Rain
10:53 AM 44.6 °F 41.4 °F 41.0 °F 87% 30.21 in 10.0 mi SSW 5.8 mph - N/A   Overcast
11:55 AM 46.4 °F 43.5 °F 44.6 °F 93% 30.17 in 10.0 mi South 5.8 mph - N/A   Overcast
12:55 PM 46.4 °F 42.9 °F 44.6 °F 93% 30.13 in 10.0 mi South 6.9 mph - N/A   Overcast
1:47 PM 48.2 °F - 46.4 °F 93% 30.12 in 10.0 mi SSW 4.6 mph - N/A   Overcast
2:55 PM 50.0 °F - 46.4 °F 87% 30.11 in 10.0 mi South 5.8 mph - N/A   Overcast
3:50 PM 50.0 °F - 46.4 °F 87% 30.11 in 10.0 mi South 3.5 mph - N/A   Overcast
4:50 PM 50.0 °F - 46.4 °F 87% 30.10 in 10.0 mi South 4.6 mph - N/A   Overcast
5:50 PM 48.2 °F - 46.4 °F 93% 30.10 in 10.0 mi SSW 3.5 mph - N/A Rain Rain
6:51 PM 48.2 °F - 48.2 °F 100% 30.10 in 10.0 mi Calm Calm - N/A Rain Light Rain
7:50 PM 48.2 °F - 48.2 °F 100% 30.08 in 10.0 mi Calm Calm - N/A Rain Rain
8:50 PM 46.4 °F - 46.4 °F 100% 30.08 in 5.0 mi Calm Calm - N/A Rain Heavy Rain
9:53 PM 47.5 °F - 47.5 °F 100% 30.05 in 3.0 mi ESE 3.5 mph - 0.10 in Rain Heavy Rain
10:14 PM 48.2 °F - 48.2 °F 100% 30.04 in 3.0 mi Calm Calm - N/A Rain Rain
10:36 PM 47.7 °F - 47.7 °F 100% 30.03 in 2.5 mi Calm Calm - 0.17 in Rain Heavy Rain
10:57 PM 47.7 °F - 47.7 °F 100% 30.03 in 2.5 mi Calm Calm - 0.32 in Rain Rain
11:18 PM 47.7 °F - 47.7 °F 100% 30.03 in 2.0 mi NW 8.1 mph - 0.07 in Rain Heavy Rain
11:40 PM 47.8 °F - 47.8 °F 100% 30.02 in 2.5 mi Calm Calm - 0.19 in Rain Heavy Rain